Time,TemperatureF,DewpointF,PressureIn,WindDirection,WindDirectionDegrees,WindSpeedMPH,WindSpeedGustMPH,Humidity,HourlyPrecipIn,Conditions,Clouds,dailyrainin,SoftwareType,DateUTC
2013-06-13 00:04:00,70.5,69.6,29.92,West,270,0.0,-999.0,97,-99.99,,,0.00,Acu-Link.com,2013-06-13 04:04:00,
2013-06-13 00:20:00,70.0,69.1,29.91,NE,45,0.0,-999.0,97,-99.99,,,0.00,Acu-Link.com,2013-06-13 04:20:00,
2013-06-13 00:35:00,69.6,69.0,29.91,WNW,292,0.0,-999.0,98,-99.99,,,0.00,Acu-Link.com,2013-06-13 04:35:00,
2013-06-13 00:50:00,69.4,68.8,29.91,West,270,0.0,-999.0,98,-99.99,,,0.00,Acu-Link.com,2013-06-13 04:50:00,
2013-06-13 01:06:00,69.3,68.7,29.90,WSW,247,0.0,-999.0,98,-99.99,,,0.00,Acu-Link.com,2013-06-13 05:06:00,
2013-06-13 01:21:00,68.9,68.6,29.90,NE,45,0.0,-999.0,99,-99.99,,,0.00,Acu-Link.com,2013-06-13 05:21:00,
2013-06-13 01:36:00,68.7,68.4,29.90,West,270,0.0,-999.0,99,-99.99,,,0.00,Acu-Link.com,2013-06-13 05:36:00,
2013-06-13 01:51:00,68.4,68.1,29.90,West,270,0.0,-999.0,99,-99.99,,,0.00,Acu-Link.com,2013-06-13 05:51:00,
2013-06-13 02:07:00,68.2,67.9,29.89,SE,135,0.0,-999.0,99,-99.99,,,0.00,Acu-Link.com,2013-06-13 06:07:00,
2013-06-13 02:22:00,68.0,67.7,29.90,NE,45,0.0,-999.0,99,-99.99,,,0.00,Acu-Link.com,2013-06-13 06:22:00,
2013-06-13 02:37:00,67.8,67.5,29.90,SE,135,0.0,-999.0,99,-99.99,,,0.00,Acu-Link.com,2013-06-13 06:37:00,
2013-06-13 02:53:00,67.6,67.3,29.90,West,270,0.0,-999.0,99,-99.99,,,0.00,Acu-Link.com,2013-06-13 06:53:00,
2013-06-13 03:08:00,67.8,67.5,29.90,ESE,112,0.0,-999.0,99,-99.99,,,0.00,Acu-Link.com,2013-06-13 07:08:00,
2013-06-13 03:23:00,67.6,67.3,29.90,SSW,202,0.0,-999.0,99,-99.99,,,0.00,Acu-Link.com,2013-06-13 07:23:00,
2013-06-13 03:39:00,67.6,67.3,29.89,East,90,0.0,-999.0,99,-99.99,,,0.00,Acu-Link.com,2013-06-13 07:39:00,
2013-06-13 03:54:00,67.6,67.3,29.90,West,270,0.0,-999.0,99,-99.99,,,0.00,Acu-Link.com,2013-06-13 07:54:00,
2013-06-13 04:09:00,68.0,67.7,29.89,South,180,0.0,-999.0,99,-99.99,,,0.00,Acu-Link.com,2013-06-13 08:09:00,
2013-06-13 04:24:00,68.4,68.1,29.89,West,270,0.0,-999.0,99,-99.99,,,0.00,Acu-Link.com,2013-06-13 08:24:00,
2013-06-13 04:40:00,68.5,68.2,29.88,SSW,202,0.0,-999.0,99,-99.99,,,0.00,Acu-Link.com,2013-06-13 08:40:00,
2013-06-13 04:55:00,68.9,68.6,29.88,South,180,0.0,-999.0,99,-99.99,,,0.00,Acu-Link.com,2013-06-13 08:55:00,
2013-06-13 05:10:00,68.5,68.2,29.88,South,180,1.7,-999.0,99,-99.99,,,0.00,Acu-Link.com,2013-06-13 09:10:00,
2013-06-13 05:25:00,68.9,68.6,29.87,SW,225,0.0,-999.0,99,-99.99,,,0.00,Acu-Link.com,2013-06-13 09:25:00,
2013-06-13 05:41:00,69.1,68.8,29.87,NNE,22,1.1,-999.0,99,-99.99,,,0.00,Acu-Link.com,2013-06-13 09:41:00,
2013-06-13 05:56:00,68.9,68.6,29.86,WNW,292,0.0,-999.0,99,-99.99,,,0.00,Acu-Link.com,2013-06-13 09:56:00,
2013-06-13 06:11:00,69.1,68.8,29.87,West,270,0.0,-999.0,99,-99.99,,,0.00,Acu-Link.com,2013-06-13 10:11:00,
2013-06-13 06:27:00,69.4,69.1,29.87,WSW,247,0.0,-999.0,99,-99.99,,,0.00,Acu-Link.com,2013-06-13 10:27:00,
2013-06-13 06:42:00,69.6,69.3,29.86,West,270,1.1,-999.0,99,-99.99,,,0.00,Acu-Link.com,2013-06-13 10:42:00,
2013-06-13 06:57:00,69.6,69.3,29.86,West,270,0.0,-999.0,99,-99.99,,,0.00,Acu-Link.com,2013-06-13 10:57:00,
2013-06-13 07:13:00,69.4,69.1,29.86,West,270,0.0,-999.0,99,-99.99,,,0.00,Acu-Link.com,2013-06-13 11:13:00,
2013-06-13 07:28:00,69.8,69.5,29.86,NE,45,1.7,-999.0,99,-99.99,,,0.00,Acu-Link.com,2013-06-13 11:28:00,
2013-06-13 07:43:00,70.3,70.0,29.86,NE,45,2.7,-999.0,99,-99.99,,,0.00,Acu-Link.com,2013-06-13 11:43:00,
2013-06-13 07:58:00,71.4,70.5,29.86,NNE,22,2.7,-999.0,97,-99.99,,,0.00,Acu-Link.com,2013-06-13 11:58:00,
2013-06-13 08:14:00,72.0,70.8,29.86,NNE,22,2.2,-999.0,96,-99.99,,,0.00,Acu-Link.com,2013-06-13 12:14:00,
2013-06-13 08:29:00,72.9,70.8,29.86,NE,45,2.2,-999.0,93,-99.99,,,0.00,Acu-Link.com,2013-06-13 12:29:00,
2013-06-13 08:44:00,73.8,70.7,29.86,NNE,22,1.7,-999.0,90,-99.99,,,0.00,Acu-Link.com,2013-06-13 12:44:00,
2013-06-13 09:00:00,74.7,70.9,29.86,ENE,67,2.2,-999.0,88,-99.99,,,0.00,Acu-Link.com,2013-06-13 13:00:00,
2013-06-13 09:15:00,75.0,70.9,29.85,East,90,2.2,-999.0,87,-99.99,,,0.00,Acu-Link.com,2013-06-13 13:15:00,
2013-06-13 09:30:00,75.9,71.1,29.85,NE,45,0.0,-999.0,85,-99.99,,,0.00,Acu-Link.com,2013-06-13 13:30:00,
2013-06-13 09:46:00,76.3,70.4,29.85,NNE,22,2.2,-999.0,82,-99.99,,,0.00,Acu-Link.com,2013-06-13 13:46:00,
2013-06-13 10:01:00,75.9,70.4,29.84,East,90,3.7,-999.0,83,-99.99,,,0.00,Acu-Link.com,2013-06-13 14:01:00,
2013-06-13 10:16:00,77.2,70.9,29.83,NW,315,2.2,-999.0,81,-99.99,,,0.00,Acu-Link.com,2013-06-13 14:16:00,
2013-06-13 10:32:00,77.7,70.7,29.83,NE,45,2.7,-999.0,79,-99.99,,,0.00,Acu-Link.com,2013-06-13 14:32:00,
2013-06-13 10:47:00,79.7,72.2,29.81,ENE,67,2.2,-999.0,78,-99.99,,,0.00,Acu-Link.com,2013-06-13 14:47:00,
2013-06-13 11:02:00,80.1,71.4,29.81,West,270,2.2,-999.0,75,-99.99,,,0.00,Acu-Link.com,2013-06-13 15:02:00,
2013-06-13 11:18:00,81.3,71.8,29.81,West,270,2.2,-999.0,73,-99.99,,,0.00,Acu-Link.com,2013-06-13 15:18:00,
2013-06-13 11:33:00,81.9,70.7,29.80,NNE,22,3.2,-999.0,69,-99.99,,,0.00,Acu-Link.com,2013-06-13 15:33:00,
2013-06-13 11:48:00,82.8,71.1,29.80,ENE,67,2.2,-999.0,68,-99.99,,,0.00,Acu-Link.com,2013-06-13 15:48:00,
2013-06-13 12:03:00,83.7,70.2,29.79,SE,135,1.7,-999.0,64,-99.99,,,0.00,Acu-Link.com,2013-06-13 16:03:00,
2013-06-13 12:19:00,85.1,72.0,29.79,East,90,2.7,-999.0,65,-99.99,,,0.00,Acu-Link.com,2013-06-13 16:19:00,
2013-06-13 12:34:00,84.9,70.9,29.78,SSE,157,1.1,-999.0,63,-99.99,,,0.00,Acu-Link.com,2013-06-13 16:34:00,
2013-06-13 12:49:00,85.8,72.2,29.77,South,180,2.2,-999.0,64,-99.99,,,0.00,Acu-Link.com,2013-06-13 16:49:00,
2013-06-13 13:05:00,86.9,71.3,29.76,SSE,157,0.0,-999.0,60,-99.99,,,0.00,Acu-Link.com,2013-06-13 17:05:00,
2013-06-13 13:20:00,86.9,70.8,29.77,SE,135,1.7,-999.0,59,-99.99,,,0.00,Acu-Link.com,2013-06-13 17:20:00,
2013-06-13 13:35:00,87.6,72.5,29.76,NE,45,0.0,-999.0,61,-99.99,,,0.00,Acu-Link.com,2013-06-13 17:35:00,
2013-06-13 13:51:00,85.3,72.6,29.76,SE,135,2.7,-999.0,66,-99.99,,,0.00,Acu-Link.com,2013-06-13 17:51:00,
2013-06-13 14:06:00,83.1,71.9,29.76,South,180,2.7,-999.0,69,-99.99,,,0.00,Acu-Link.com,2013-06-13 18:06:00,
2013-06-13 14:21:00,84.2,71.6,29.75,South,180,1.1,-999.0,66,-99.99,,,0.00,Acu-Link.com,2013-06-13 18:21:00,
2013-06-13 14:37:00,85.3,72.6,29.74,South,180,1.1,-999.0,66,-99.99,,,0.00,Acu-Link.com,2013-06-13 18:37:00,
2013-06-13 14:52:00,85.3,72.6,29.74,SSE,157,1.7,-999.0,66,-99.99,,,0.00,Acu-Link.com,2013-06-13 18:52:00,
2013-06-13 15:07:00,86.4,74.1,29.73,NNE,22,2.2,-999.0,67,-99.99,,,0.00,Acu-Link.com,2013-06-13 19:07:00,
2013-06-13 15:22:00,84.6,73.7,29.72,ESE,112,1.7,-999.0,70,-99.99,,,0.00,Acu-Link.com,2013-06-13 19:22:00,
2013-06-13 15:38:00,84.9,73.1,29.72,South,180,0.0,-999.0,68,-99.99,,,0.00,Acu-Link.com,2013-06-13 19:38:00,
2013-06-13 15:53:00,83.3,72.9,29.71,ESE,112,2.7,-999.0,71,-99.99,,,0.00,Acu-Link.com,2013-06-13 19:53:00,
2013-06-13 16:08:00,83.7,72.9,29.70,SSE,157,1.1,-999.0,70,-99.99,,,0.00,Acu-Link.com,2013-06-13 20:08:00,
2013-06-13 16:24:00,83.3,73.3,29.70,SW,225,1.1,-999.0,72,-99.99,,,0.00,Acu-Link.com,2013-06-13 20:24:00,
2013-06-13 16:39:00,83.7,72.9,29.68,South,180,2.2,-999.0,70,-99.99,,,0.00,Acu-Link.com,2013-06-13 20:39:00,
2013-06-13 16:54:00,84.0,72.7,29.68,West,270,4.2,-999.0,69,-99.99,,,0.00,Acu-Link.com,2013-06-13 20:54:00,
2013-06-13 17:10:00,83.3,73.3,29.68,NNE,22,1.7,-999.0,72,-99.99,,,0.00,Acu-Link.com,2013-06-13 21:10:00,
2013-06-13 17:25:00,81.7,72.6,29.68,NW,315,0.0,-999.0,74,-99.99,,,0.00,Acu-Link.com,2013-06-13 21:25:00,
2013-06-13 17:40:00,79.3,73.3,29.69,NE,45,4.2,-999.0,82,-99.99,,,0.00,Acu-Link.com,2013-06-13 21:40:00,
2013-06-13 17:55:00,71.6,69.5,29.75,South,180,2.2,-999.0,93,-99.99,,,0.21,Acu-Link.com,2013-06-13 21:55:00,
2013-06-13 18:10:00,70.9,69.1,29.75,SW,225,1.7,-999.0,94,-99.99,,,0.48,Acu-Link.com,2013-06-13 22:10:00,
2013-06-13 18:26:00,70.2,69.0,29.72,East,90,0.0,-999.0,96,-99.99,,,0.52,Acu-Link.com,2013-06-13 22:26:00,
2013-06-13 18:41:00,69.8,69.2,29.74,NNE,22,0.0,-999.0,98,-99.99,,,0.52,Acu-Link.com,2013-06-13 22:41:00,
2013-06-13 18:56:00,69.8,69.5,29.73,SW,225,0.0,-999.0,99,-99.99,,,0.52,Acu-Link.com,2013-06-13 22:56:00,
2013-06-13 19:12:00,69.8,69.5,29.72,ESE,112,0.0,-999.0,99,-99.99,,,0.52,Acu-Link.com,2013-06-13 23:12:00,
2013-06-13 19:27:00,69.8,69.5,29.72,WSW,247,0.0,-999.0,99,-99.99,,,0.52,Acu-Link.com,2013-06-13 23:27:00,
2013-06-13 19:42:00,69.8,69.5,29.72,SSE,157,0.0,-999.0,99,-99.99,,,0.52,Acu-Link.com,2013-06-13 23:42:00,
2013-06-13 19:58:00,69.8,69.5,29.73,WSW,247,0.0,-999.0,99,-99.99,,,0.52,Acu-Link.com,2013-06-13 23:58:00,
2013-06-13 20:13:00,69.8,69.5,29.73,SW,225,0.0,-999.0,99,-99.99,,,0.52,Acu-Link.com,2013-06-14 00:13:00,
2013-06-13 20:28:00,69.8,69.5,29.72,ENE,67,0.0,-999.0,99,-99.99,,,0.52,Acu-Link.com,2013-06-14 00:28:00,
2013-06-13 20:44:00,69.6,69.3,29.71,WNW,292,0.0,-999.0,99,-99.99,,,0.52,Acu-Link.com,2013-06-14 00:44:00,
2013-06-13 20:59:00,69.4,69.1,29.73,SSE,157,0.0,-999.0,99,-99.99,,,0.52,Acu-Link.com,2013-06-14 00:59:00,
2013-06-13 21:14:00,69.4,69.1,29.73,WSW,247,0.0,-999.0,99,-99.99,,,0.52,Acu-Link.com,2013-06-14 01:14:00,
2013-06-13 21:30:00,69.1,68.8,29.74,East,90,0.0,-999.0,99,-99.99,,,0.52,Acu-Link.com,2013-06-14 01:30:00,
2013-06-13 21:45:00,68.9,68.6,29.74,SSW,202,0.0,-999.0,99,-99.99,,,0.52,Acu-Link.com,2013-06-14 01:45:00,
2013-06-13 22:00:00,68.9,68.6,29.75,ESE,112,2.2,-999.0,99,-99.99,,,0.52,Acu-Link.com,2013-06-14 02:00:00,
2013-06-13 22:15:00,68.9,68.6,29.75,NW,315,0.0,-999.0,99,-99.99,,,0.52,Acu-Link.com,2013-06-14 02:15:00,
2013-06-13 22:30:00,68.9,68.6,29.76,SSE,157,0.0,-999.0,99,-99.99,,,0.52,Acu-Link.com,2013-06-14 02:30:00,
2013-06-13 22:46:00,68.9,68.6,29.76,East,90,0.0,-999.0,99,-99.99,,,0.52,Acu-Link.com,2013-06-14 02:46:00,
2013-06-13 23:01:00,68.7,68.4,29.76,NW,315,0.0,-999.0,99,-99.99,,,0.52,Acu-Link.com,2013-06-14 03:01:00,
2013-06-13 23:16:00,68.2,67.9,29.77,East,90,0.0,-999.0,99,-99.99,,,0.52,Acu-Link.com,2013-06-14 03:16:00,
2013-06-13 23:31:00,67.8,67.5,29.76,East,90,0.0,-999.0,99,-99.99,,,0.52,Acu-Link.com,2013-06-14 03:31:00,
2013-06-13 23:46:00,67.5,67.2,29.77,West,270,0.0,-999.0,99,-99.99,,,0.52,Acu-Link.com,2013-06-14 03:46:00,